Zurück zum Katalog

STARLINK-36914

AktivKommunikationVLEO
NORAD 67942·PAYLOAD·🇺🇸 United States

Gestartet Feb 24, 2026 von Vandenberg Space Force Base

Loading…

Nächste Überflüge (nächste 24 Stunden)

TLE

AktuellSource: CelesTrak SupGP

Epoche: Sep 14, 2026, 21:29 UTC

1 67942C 26037L   26257.89562500  .00010393  00000+0  37618-3 0  2573
2 67942  42.9997 202.2124 0000953 244.7377 231.8473 15.27597276    14

Verfolge STARLINK-36914 in Echtzeit mit AllMySat

Download on the App Store